Regional Weather Roundup
Issued by NWS

Home | Current Version | Previous Version | Text Only | Print | Product List | Glossary Off
Versions: 1 2 3 4 5 6 7 8 9 10 11 12 13 14 15 16 17 18 19 20 21 22 23 24 25 26 27 28 29 30 31 32 33 34 35 36 37 38 39 40 41 42 43 44 45 46 47 48 49 50

000
ASUS43 KMPX 041010
RWRMN
WEATHER ROUNDUP FOR MINNESOTA
NATIONAL WEATHER SERVICE TWIN CITIES/CHANHASSEN MN
500 AM CDT SAT JUL 04 2015


NOTE: "FAIR" INDICATES FEW OR NO CLOUDS BELOW 12,000 FEET WITH NO
SIGNIFICANT WEATHER AND/OR OBSTRUCTIONS TO VISIBILITY. N/A MEANS
CURRENT SKY AND/OR WEATHER CONDITIONS ARE NOT AVAILABLE.

MNZ060>063-068>070-041100-
   Twin Cities Metro

CITY           SKY/WX    TMP DP  RH WIND       PRES   REMARKS
TWIN CITIES    MOCLDY    66  60  81 CALM      29.94R
ST PAUL        CLEAR     62  60  93 CALM      29.94R
CRYSTAL        CLEAR     63  60  90 CALM      29.92R
BLAINE         CLEAR     64  63  94 CALM      29.93S
LAKEVILLE      CLEAR     59  57  94 CALM      29.94S
EDEN PRAIRIE   PTCLDY    64  60  87 SW3       29.93S
SOUTH ST PAUL  CLEAR     65  59  81 CALM      29.93S
LAKE ELMO      FAIR      59  59 100 CALM      29.95R FOG
$$
MNZ001>005-007-008-013>017-022>024-027-028-041100-
   Northwest Minnesota

CITY           SKY/WX    TMP DP  RH WIND       PRES   REMARKS
BEMIDJI        FOG       53  52  99 CALM      29.94S VSB 1/4
HALLOCK        CLEAR     57  55  94 SE6       29.87S FOG
ROSEAU         CLEAR     57  54  88 S3        29.90R
WARROAD        CLEAR     61  57  88 CALM      29.90F
THIEF RVR FALL CLEAR     57  55  94 SE5       29.91S
CROOKSTON      CLEAR     59  57  94 SE7       29.90S FOG
FOSSTON        CLEAR     57  52  82 CALM      29.93S HAZE
DETROIT LAKES  CLEAR     61  59  94 SE3       29.94S FOG
MOORHEAD       CLEAR     63  61  94 CALM      29.91S FOG
PARK RAPIDS    MOCLDY    58  55  90 CALM      29.94S
MAHNOMEN       CLOUDY    61  59  92 CALM      29.92S
$$
MNZ006-009>011-018-025>026-041100-
   North Central Minnesota

CITY           SKY/WX    TMP DP  RH WIND       PRES   REMARKS
BAUDETTE       CLEAR     56  52  86 SE5       29.92S
FLAG ISLAND    CLEAR     68  61  77 S8        29.89S
INTL FALLS     CLEAR     46  45  96 CALM      29.94R
WASKISH        CLEAR     54  54 100 CALM      29.93S FOG
BIG FORK       CLEAR     48  46  93 CALM      29.95S
LONGVILLE      CLEAR     52  52 100 CALM      29.95R FOG
GRAND RAPIDS   PTCLDY    54  52  94 S3        29.96R
CRANE LAKE     CLEAR     46  45  93 CALM      29.97S
ORR            CLEAR     48  46  93 CALM      29.94R FOG
COOK           CLEAR     48  48 100 CALM      29.96S
WALKER         FAIR      53  52  99 CALM      29.95R FOG
$$
MNZ012-019>021-037-041100-
   Northeast Minnesota

CITY           SKY/WX    TMP DP  RH WIND       PRES   REMARKS
DULUTH         CLEAR     60  54  80 E3        29.95S
ELY            CLEAR     46  45  93 CALM      29.97R FOG
HIBBING        CLEAR     47  45  93 CALM      29.96R FOG
DULUTH HARBOR  CLEAR     63  57  82 E8        29.95R
TWO HARBORS    CLEAR     61  55  82 VRB5      29.94R
SILVER BAY     CLEAR     52  50  93 CALM      29.95R FOG
GRAND MARAIS     N/A     50  47  89 CALM      29.95R
G MARAIS ARPRT CLEAR     48  45  87 N5        29.98S FOG
$$
MNZ029>031-032-039>041-046>048-054>057-064-041100-
   West Central Minnesota

CITY           SKY/WX    TMP DP  RH WIND       PRES   REMARKS
FERGUS FALLS   CLEAR     64  63  94 SE5       29.92S FOG
WHEATON        CLEAR     57  57 100 SE3       29.93S FOG
MORRIS         FOG       61  61 100 CALM      29.92S VSB 1/4
ALEXANDRIA     CLEAR     63  60  90 E3        29.95S FOG
ELBOW LAKE     FAIR      63  61  92 SE5       29.92S FOG
WADENA         FOG       55  54  94 CALM      29.94S VSB<1/4
GLENWOOD       CLEAR     63  61  94 CALM      29.95S FOG
APPLETON       CLOUDY    61  57  88 CALM      29.92S FOG
BENSON         FOG       57  55  94 CALM      29.93S VSB<1/4
ORTONVILLE     CLEAR     63  61  94 CALM      29.92F FOG
MADISON        CLEAR     61  61 100 CALM      29.93S FOG
WILLMAR        FAIR      61  61 100 CALM      29.94F FOG
$$
MNZ033>034-036-042>043-049>051-058-059-041100-
   Central Minnesota

CITY           SKY/WX    TMP DP  RH WIND       PRES   REMARKS
ST CLOUD       FOG       57  57 100 CALM      29.93S VSB 1/4
SAUK CENTRE    FOG       56  56  99 CALM      29.94S VSB<1/4
PAYNESVILLE    FOG       55  55 100 CALM      29.94F VSB 1/4
AITKIN         HAZE      52  46  82 CALM      29.93S VSB 1/4
PINE RIVER     CLOUDY    52  52 100 CALM      29.98R FOG
BRAINERD       FOG       54  53  97 CALM      29.95R VSB 1/4
STAPLES        FOG       57  57 100 CALM      29.94S VSB 1/2
LONG PRAIRIE   CLOUDY    59  59 100 CALM      29.95S FOG
LITTLE FALLS     N/A     55  54  94 CALM      29.94S FOG
LITCHFIELD     CLEAR     63  63 100 CALM      29.94F FOG
BUFFALO        PTCLDY    61  58  90 CALM      29.95S
MAPLE LAKE     FOG       61  61  98 CALM      29.94S VSB 1/2
$$
MNZ037-044-045-052-053-041100-
   East Central Minnesota

CITY           SKY/WX    TMP DP  RH WIND       PRES   REMARKS
PRINCETON      FOG       57  57 100 CALM      29.94S VSB 1/4
MORA           FOG       55  54  94 CALM      29.95S VSB 1/2
CAMBRIDGE      HAZE      61  54  77 CALM      29.92S VSB 1/4
RUSH CITY      CLEAR     57  56  97 CALM      29.94R FOG
MOOSE LAKE       N/A     52  52 100 CALM      29.93S FOG
HINCKLEY       FAIR      57  57 100 CALM      29.94S FOG
CLOQUET        CLEAR     54  52  94 CALM      29.95S
MCGREGOR       MOCLDY    52  50  93 CALM      29.95S VSB 1/4
$$
MNZ071>073-080-081-089-090-097-098-041100-
   Southwest Minnesota

CITY           SKY/WX    TMP DP  RH WIND       PRES   REMARKS
MONTEVIDEO     CLEAR     63  61  94 CALM      29.94R FOG
GRANITE FALLS    N/A     61  61  99 CALM      29.94S FOG
CANBY          CLEAR     66  63  89 SW5       29.95S
MARSHALL       CLEAR     66  61  82 W8          N/A
REDWOOD FALLS  CLEAR     63  61  93 S5        29.93F FOG
OLIVIA         CLEAR     59  55  88 S5        29.93S FOG
PIPESTONE        N/A     63  61  94 CALM      29.98S FOG
WINDOM         CLEAR     63  57  82 SW5       29.98R FOG
WORTHINGTON    CLEAR     64  54  68 SW8       29.99R
JACKSON        CLEAR     63  55  77 SW6       29.99R
TRACY          CLEAR     67  64  90 SW8       29.96S FOG
SLAYTON        CLEAR     63  62  96 CALM      29.99S FOG
$$
MNZ065>067-074>077-082>085-091>093-041100-
   South Central Minnesota

CITY           SKY/WX    TMP DP  RH WIND       PRES   REMARKS
MANKATO        CLEAR     63  57  82 SW6       29.95S
NEW ULM        CLEAR     63  61  94 CALM      29.95S FOG
ST JAMES       CLEAR     63  61  94 SW5       29.97S FOG
FAIRMONT       CLEAR     63  54  72 W5        29.97R
GLENCOE        CLOUDY    60  58  96 CALM      29.94S FOG
FARIBAULT      CLEAR     61  57  88 S3        29.96R
OWATONNA       CLEAR     61  55  82 CALM      29.97R
WASECA         MOCLDY    55  54  94 CALM      29.97S FOG
ALBERT LEA     CLEAR     61  57  88 CALM      29.97S
$$
MNZ078>079-086>088-094>096-041100-
   Southeast Minnesota

CITY           SKY/WX    TMP DP  RH WIND       PRES   REMARKS
ROCHESTER      CLEAR     60  54  80 SW9       29.98R
RED WING       CLEAR     59  57  94 CALM      29.93S
STANTON        MOCLDY    63  57  82 CALM      29.93S
DODGE CENTER   CLEAR     59  55  88 SW6       29.97R
WINONA         MOCLDY    59  59 100 CALM      29.95R
AUSTIN         CLEAR     57  55  94 CALM      29.97S
PRESTON        CLEAR     59  53  78 SW5       29.98R
$$
ABBREVIATIONS USED IN REMARKS
   TC - TEMPERATURES IN CELSIUS
  WCI - WIND CHILL INDEX
   HX - HEAT INDEX
  VSB - VISIBILITY
$$


USA.gov is the U.S. government's official web portal to all federal, state and local government web resources and services.